Location: Alladorf
(49.9620°N, 11.3790°E)
Time: 20:13:41
(UTC+00:00)

COSMO-SKYMED 1 - Pass Details

Date: 29 November 2020
Orbit: 621 x 623 km, 97.9° (Epoch: 25 January)

Event Time Altitude Azimuth Distance (km) Brightness Sun altitude
Rises 03:24:47 0° 136° (SE) 2,895 6.5 -32.0°
Reaches altitude 10° 03:27:09 10° 126° (SE) 1,994 5.7 -31.6°
Maximum altitude 03:30:56 30° 65° (ENE) 1,121 4.3 -31.0°
Enters shadow 03:31:33 29° 49° (NE) 1,153 4.3 -30.9°
